Location: Unspecified
(0.0000°N, 0.0000°E)
Time: 17:55:22
(UTC+02:00)

GPS 2-15 Rocket1 - Visible Passes

Search period start: 30 June 2016 00:00
Search period end: 10 July 2016 00:00
Orbit: 625 x 677 km, 19.8° (Epoch: 30 June)

Date Brightness Start Highest point End Pass type
(mag) Time Alt. Az. Time Alt. Az. Time Alt. Az.
30 Jun 3.0 21:45:02 10° WSW 21:49:29 72° SSW 21:49:29 72° SSW visible
01 Jul 5.9 06:31:53 10° N 06:33:55 12° NNE 06:35:58 10° NE visible
01 Jul 3.6 20:27:30 10° SW 20:32:02 42° SSE 20:36:29 10° E visible
01 Jul 4.2 22:11:39 10° W 22:15:04 42° WNW 22:15:04 42° WNW visible
02 Jul 5.5 06:57:09 10° NNW 07:00:40 20° NNE 07:04:14 10° ENE visible
02 Jul 3.0 20:53:46 10° WSW 20:58:34 83° SSE 21:02:58 12° ENE visible
02 Jul 5.5 22:38:43 10° W 22:40:40 20° WNW 22:40:40 20° WNW visible
03 Jul 5.8 05:41:41 12° N 05:42:45 13° NNE 05:45:00 10° NE visible
03 Jul 4.7 07:22:56 10° NW 07:27:17 35° NNE 07:31:42 10° E visible
03 Jul 3.9 21:20:27 10° W 21:25:04 50° NNW 21:28:34 16° NE visible
04 Jul 5.3 06:07:08 15° NNW 06:09:28 21° NNE 06:13:08 10° ENE visible
04 Jul 4.9 21:47:36 10° WNW 21:51:38 27° NNW 21:54:07 17° NNE visible
05 Jul 4.4 06:32:40 15° NW 06:36:04 38° NNE 06:40:31 10° E visible
05 Jul 4.2 20:29:14 10° W 20:33:52 45° NNW 20:38:24 10° NE visible
05 Jul 5.5 22:15:22 10° NW 22:18:18 16° NNW 22:19:35 15° N visible
06 Jul 5.8 05:20:33 16° ENE 05:20:33 16° ENE 05:22:02 10° ENE visible
06 Jul 3.3 06:58:16 12° WNW 07:02:36 74° NNE 07:07:24 10° ESE visible
06 Jul 5.2 20:56:28 10° WNW 21:00:26 25° NNW 21:04:21 10° NE visible
06 Jul 6.1 22:44:44 10° NNW 22:44:56 10° NNW 22:44:56 10° NNW visible
07 Jul 4.7 05:46:11 33° ENE 05:46:11 33° ENE 05:49:21 10° E visible
07 Jul 3.3 07:24:28 10° W 07:29:07 57° SSW 07:33:50 10° ESE visible
07 Jul 5.7 21:24:20 10° NW 21:27:07 15° NNW 21:29:53 10° NNE visible
08 Jul 3.2 06:11:47 73° E 06:11:47 73° E 06:16:09 10° ESE visible
09 Jul 3.2 06:37:20 48° SW 06:37:55 51° SSW 06:42:31 10° SE visible
09 Jul 5.8 20:33:18 10° NW 20:35:55 14° NNW 20:38:32 10° NNE visible
